Regional Weather Roundup
Issued by NWS

Home | Current Version | Previous Version | Graphics & Text | Print | Product List | Glossary On
Versions: 1 2 3 4 5 6 7 8 9 10 11 12 13 14 15 16 17 18 19 20 21 22 23 24 25 26 27 28 29 30 31 32 33 34 35 36 37 38 39 40 41 42 43 44 45 46 47 48 49 50
000
ASUS45 KBOI 290610
RWRID

IDAHO REGIONAL WEATHER ROUNDUP
NATIONAL WEATHER SERVICE BOISE ID
1200 AM MDT FRI MAY 29 2015

NOTE: "FAIR" INDICATES FEW OR NO CLOUDS BELOW 12000 FEET
WITH NO SIGNIFICANT WEATHER AND/OR OBSTRUCTIONS TO VISIBILITY

IDZ012-014-290700-
SOUTHWEST IDAHO


CITY           SKY/WX    TMP DP  RH WIND       PRES   REMARKS
BOISE          CLEAR     63  45  51 CALM      30.06S
CALDWELL       CLEAR     57  41  54 E6        30.05S
MOUNTAIN HOME  CLEAR     63  41  45 W2        30.07R
$$

IDZ016-017-290700-
SOUTHCENTRAL IDAHO


CITY           SKY/WX    TMP DP  RH WIND       PRES   REMARKS
BURLEY         PTCLDY    55  44  66 NE7       30.16R
JEROME         PTCLDY    57  44  62 NE16      30.15R
TWIN FALLS     PTCLDY    55  42  61 E9        30.12R
$$

IDZ019>023-290700-
SOUTHEAST IDAHO


CITY           SKY/WX    TMP DP  RH WIND       PRES   REMARKS
IDAHO FALLS    CLEAR     48  45  89 N5        30.22R
POCATELLO      CLEAR     51  49  92 NE5       30.20R
REXBURG        CLEAR     48  44  86 N6        30.23R
$$

IDZ006-010-011-018-031-032-290700-
CENTRAL IDAHO MOUNTAINS


CITY           SKY/WX    TMP DP  RH WIND       PRES   REMARKS
MCCALL         CLEAR     56  41  57 N6        30.15S
HAILEY         LGT RAIN  54  45  71 W3        30.24S
STANLEY          N/A     41  35  79 S6        30.26R
SALMON         MOCLDY    50  45  81 NE3       30.21S
CHALLIS        CLEAR     52  41  66 W8        30.21S
$$

IDZ002-004-006-007-026-290700-
NORTHERN IDAHO


CITY           SKY/WX    TMP DP  RH WIND       PRES   REMARKS
LEWISTON       LGT RAIN  66  52  60 E8        30.03S
LOWELL           N/A     56  51  84 N3        30.12R
COEUR D`ALENE  PTCLDY    57  52  82 NE8       30.12S
MULLAN PASS    PTCLDY    45  41  86 SE9G17    30.24F
$$


USA.gov is the U.S. government's official web portal to all federal, state and local government web resources and services.